Location: Nordegg
(52.4712°N, 116.0743°W)
Time: 11:04:56
(UTC+00:00)

Envisat - Pass Details

Date: 02 December 2021
Orbit: 764 x 766 km, 98.2° (Epoch: 28 January)

Event Time Altitude Azimuth Distance (km) Brightness Sun altitude
Rises 11:45:40 0° 23° (NNE) 3,248 6.6 -33.6°
Reaches altitude 10° 11:48:26 10° 38° (NE) 2,316 5.9 -33.2°
Maximum altitude 11:52:30 24° 91° (E) 1,571 5.2 -32.6°
Drops below altitude 10° 11:56:32 10° 144° (SE) 2,301 5.8 -32.0°
Sets 11:59:16 0° 158° (SSE) 3,222 6.4 -31.6°
